Temperature
23 22 21 22 27 31 31 31 31 30 31 29 29 29 29 29 29 27 22 22 21 21 22 22 21 20 20 20 20 20 20 19 19 19 19 19 19 19 19 19 19 19 19 19 19 19 19 19 19
23 22 22 26 31 32 31 30 31 30 29 28 28 28 28 28 25 23 22 21 21 21 22 22 21 20 20 20 20 20 20 20 20 20 19 19 19 19 19 19 19 19 19 19 19 19 19 19 19
23 22 26 31 32 31 31 31 30 29 28 28 28 28 27 27 23 22 22 21 21 21 21 22 21 21 20 20 20 20 20 20 20 20 20 19 19 19 19 19 19 19 19 19 19 19 19 19 19
23 25 29 32 32 31 31 31 31 30 29 28 28 28 27 23 22 22 21 21 20 20 20 21 21 21 20 20 20 20 20 20 20 20 19 19 19 19 19 19 19 19 19 19 19 19 19 19 19
24 29 32 32 32 31 31 31 30 31 30 29 28 29 27 22 21 21 21 21 21 20 20 21 21 21 20 20 20 20 20 20 20 19 19 19 19 19 19 19 19 19 19 19 19 18 18 18 18
28 31 32 32 31 31 31 30 30 31 30 28 28 28 26 22 21 21 21 21 21 20 20 19 21 21 20 20 20 20 20 20 20 19 19 19 19 19 19 19 19 19 19 18 18 18 18 18 18
29 31 32 32 31 31 31 30 31 31 30 30 28 29 26 22 22 21 21 21 21 21 20 19 20 21 20 20 20 20 20 20 19 19 19 19 19 19 19 19 19 19 19 19 18 18 18 18 18
28 31 32 32 31 31 31 30 30 30 30 28 27 29 27 23 22 21 21 21 21 20 19 19 19 19 20 20 20 20 20 20 19 19 19 19 19 19 19 19 19 19 18 18 18 18 18 18 18
27 30 32 32 31 31 31 31 31 29 29 27 27 28 27 24 22 21 21 20 20 19 19 19 19 18 18 18 19 20 20 19 19 19 19 19 18 18 18 18 18 19 18 18 18 18 18 18 18
29 31 32 31 31 31 31 31 31 30 30 29 28 26 24 23 22 21 21 21 20 19 19 19 18 18 18 18 18 18 18 19 19 18 18 18 18 18 18 18 19 19 19 19 18 18 18 18 18
29 30 30 30 30 30 30 31 31 31 32 31 30 28 24 23 22 21 21 21 20 19 19 19 19 19 18 18 18 18 18 18 18 18 18 18 18 18 18 18 18 18 18 18 18 18 18 18 18
28 29 28 29 29 29 30 30 31 31 31 30 29 28 25 23 23 22 21 21 20 20 19 19 19 20 19 19 18 18 18 18 18 18 18 18 18 18 18 18 18 18 18 18 18 18 18 17 17
28 29 28 28 29 29 29 30 30 31 31 29 28 26 25 25 24 23 22 21 21 20 20 19 19 20 20 19 19 18 19 19 18 18 18 18 18 18 18 18 18 18 18 18 18 18 18 18 17
28 28 28 29 29 29 29 31 31 31 29 28 27 27 26 25 24 23 22 21 21 20 20 19 19 20 20 20 20 19 19 19 19 18 18 18 18 18 18 18 18 18 18 18 18 18 18 18 18
27 28 30 30 29 29 30 31 31 30 28 28 28 27 26 25 24 23 22 21 21 21 20 19 20 20 20 20 19 18 18 19 18 18 18 18 18 18 18 18 18 18 18 18 18 18 18 18 18
28 28 29 30 30 29 29 30 31 29 29 29 28 27 26 24 23 23 22 21 21 21 20 19 19 19 20 20 19 18 18 19 18 18 18 18 18 18 18 18 18 18 18 18 18 18 18 18 18
28 29 29 29 30 30 30 30 30 28 29 28 27 26 25 24 23 22 22 21 21 20 20 19 19 19 20 20 20 19 18 18 18 18 18 18 18 18 18 18 18 18 18 18 18 18 18 18 18
28 28 28 28 29 29 29 29 29 27 27 27 26 26 24 24 23 22 21 21 21 20 20 20 20 20 20 19 19 19 19 18 18 18 18 18 18 18 18 18 18 18 18 18 18 18 18 18 18
27 27 27 28 28 28 28 28 28 27 27 26 26 25 24 23 22 21 21 21 21 20 20 20 21 21 21 20 19 19 19 19 18 18 18 18 18 18 18 18 18 18 18 17 17 17 17 17 17
26 27 27 27 28 27 27 27 27 25 25 24 23 23 22 22 21 21 20 20 20 20 20 19 20 20 20 20 20 19 19 18 18 18 18 18 18 18 17 17 17 17 17 17 17 17 17 17 17
27 27 26 26 27 28 27 27 27 26 24 23 22 21 21 20 20 20 19 19 19 19 19 19 19 19 19 19 19 18 18 18 18 18 18 18 18 18 17 16 16 16 17 16 17 17 17 16 16
26 27 26 26 26 27 27 26 28 27 26 25 23 22 22 21 20 19 19 18 18 18 18 18 18 18 18 19 18 18 18 18 18 18 18 18 18 17 16 16 16 16 16 16 16 16 16 16 16
26 26 26 26 26 26 27 26 28 27 26 26 24 23 22 21 20 19 18 18 17 17 17 17 17 18 18 18 18 17 17 17 17 17 17 17 17 16 15 15 15 15 15 16 16 16 16 16 15
26 26 26 26 26 25 26 26 26 27 26 25 24 23 22 21 20 19 18 18 17 17 17 17 17 17 17 17 17 17 17 17 17 17 16 16 16 15 15 15 15 15 15 15 15 15 15 15 15
26 25 25 25 25 26 25 24 26 25 25 24 24 23 22 21 21 20 19 18 17 17 17 16 16 16 16 16 16 16 16 16 16 16 15 15 15 15 15 15 15 14 15 15 15 15 15 15 15
25 25 24 23 24 25 25 25 26 24 24 23 22 22 22 21 21 20 19 19 18 17 16 16 16 16 16 15 15 15 15 15 15 15 15 15 15 15 14 14 14 14 14 14 14 14 14 14 15
25 25 25 23 24 23 25 25 25 24 24 23 23 22 22 21 20 20 19 18 18 17 16 16 15 15 15 15 15 15 15 15 14 14 14 14 14 14 14 14 14 14 14 14 14 14 14 14 14
25 25 24 23 22 23 24 25 25 24 24 24 24 23 22 21 20 19 18 17 16 16 15 15 14 14 14 14 14 14 14 14 13 13 13 13 13 13 13 13 13 13 13 13 13 13 13 14 14
24 24 23 24 23 22 23 24 25 24 24 24 23 23 22 21 20 19 18 17 16 15 15 14 14 14 14 14 14 13 13 13 12 12 12 12 12 13 13 13 13 13 12 12 13 13 13 13 13
24 24 23 22 22 22 22 23 26 24 24 23 22 22 21 20 19 18 17 16 15 15 14 14 13 13 13 13 13 12 12 12 12 11 11 11 12 12 12 12 12 12 12 12 12 12 12 12 12
Wind_Speed
7 6 6 5 6 3 7 6 4 3 3 2 5 2 1 1 2 3 6 18 18 20 22 23 20 18 17 16 16 16 16 16 15 14 13 12 11 11 10 9 9 8 7 7 7 7 7 7 7
3 4 5 6 5 2 6 4 4 5 4 3 4 2 2 0 3 5 11 17 19 20 21 21 21 19 17 16 16 15 15 15 14 13 12 12 11 10 10 9 8 7 6 6 5 5 5 6 6
4 6 5 4 3 5 6 4 4 5 4 1 1 1 2 2 3 6 12 19 19 18 19 21 22 19 18 17 16 15 14 13 12 12 11 11 10 10 9 8 8 7 6 5 4 4 4 4 5
4 5 5 4 4 6 4 3 3 4 1 1 2 0 2 4 2 9 16 19 19 17 18 21 22 19 18 17 16 15 14 13 12 11 10 10 9 9 8 7 7 6 5 4 4 4 4 4 4
5 5 5 1 5 5 3 1 2 1 1 1 1 1 2 4 6 13 17 18 18 17 17 20 21 19 18 16 15 14 13 12 11 11 10 9 9 8 7 7 6 6 5 5 4 4 5 5 5
5 5 5 2 5 5 5 2 2 1 1 0 1 0 3 6 10 16 17 16 17 16 16 19 19 18 17 16 15 14 13 12 11 11 10 10 9 8 8 7 7 6 6 6 6 5 5 6 6
6 6 5 2 3 4 5 2 2 3 4 3 0 1 4 9 12 15 15 15 15 15 14 16 18 18 17 16 15 15 14 12 11 11 10 10 9 9 9 8 8 7 7 7 7 7 7 7 8
5 6 6 4 3 3 4 2 2 4 2 1 3 2 2 13 14 15 14 14 14 14 14 14 16 16 17 17 16 15 14 13 11 10 10 10 10 11 10 11 11 9 9 9 9 9 9 10 10
4 8 8 4 3 2 3 3 1 1 2 3 4 2 3 16 17 16 14 14 14 13 12 12 13 14 14 15 16 16 14 13 12 12 12 11 12 13 12 12 8 9 10 11 11 12 12 12 15
6 10 5 1 2 3 4 4 4 4 6 6 6 5 6 18 19 18 17 17 17 16 14 12 12 12 13 12 13 13 14 14 14 12 12 13 11 9 9 5 7 10 11 12 14 14 14 16 12
5 7 3 3 3 6 6 6 4 6 6 5 6 8 12 18 19 18 18 17 16 15 15 13 12 11 12 10 10 10 10 10 13 13 11 10 9 9 9 8 9 11 12 12 11 12 11 10 8
5 5 6 7 6 8 8 7 7 7 6 4 4 5 15 20 20 20 18 16 16 15 16 15 13 11 11 11 9 9 9 8 9 11 12 11 8 8 8 7 8 8 8 8 8 7 9 10 10
6 6 6 8 10 10 10 10 7 9 7 5 4 8 16 19 19 18 16 16 15 16 15 14 13 12 11 10 8 9 9 9 10 9 11 11 9 8 8 7 7 9 8 8 8 8 8 8 10
3 7 9 10 10 8 9 9 8 7 5 4 5 9 14 16 17 16 15 14 14 15 15 14 14 13 12 11 10 9 10 10 11 10 12 12 11 9 8 8 8 9 9 9 8 9 8 8 8
5 8 9 7 6 4 7 12 10 6 5 6 7 7 9 11 12 13 13 13 13 13 13 13 13 13 13 13 13 11 11 11 11 11 12 13 13 11 10 10 9 9 10 9 10 10 9 9 9
6 7 6 3 2 3 7 13 2 7 7 7 6 4 4 6 9 9 10 10 11 11 12 12 11 13 14 13 12 11 11 11 10 11 12 14 15 14 11 11 11 10 10 9 9 9 10 9 10
7 5 3 3 2 2 7 8 4 8 6 5 4 3 2 4 6 7 8 10 11 11 11 12 13 13 13 14 12 12 11 11 11 11 12 13 15 15 13 11 10 10 9 9 10 9 9 10 10
2 3 3 3 1 4 6 4 5 8 5 3 2 1 1 2 2 4 7 8 10 11 13 13 14 14 13 12 12 11 12 12 12 12 11 13 13 15 13 10 11 10 9 9 9 9 9 9 10
1 3 3 2 3 6 6 6 5 7 5 4 3 2 2 1 0 1 3 5 8 10 13 14 15 15 13 12 12 12 12 12 11 10 11 11 12 12 10 10 9 9 8 9 10 9 11 10 9
3 4 3 2 3 7 9 10 4 2 4 5 4 4 4 3 2 2 2 3 5 7 9 12 14 14 15 13 12 11 11 10 9 6 5 6 7 8 8 9 8 8 7 8 9 8 8 8 7
2 4 5 8 10 10 11 14 9 5 2 2 3 4 5 5 5 5 5 4 5 5 6 7 10 12 14 14 12 9 8 7 7 6 6 6 6 6 5 6 6 6 8 8 8 7 8 8 7
5 3 8 11 14 13 10 14 12 7 5 3 4 5 6 6 6 7 7 7 7 6 6 7 8 9 11 12 13 15 12 11 11 8 7 7 6 6 6 6 6 7 8 7 7 7 7 7 7
7 6 10 13 15 16 15 14 11 7 8 5 4 5 6 6 6 6 7 7 7 7 7 7 7 8 8 10 12 13 13 11 9 8 9 8 7 7 7 6 6 8 8 6 5 5 6 6 7
5 8 11 11 12 14 10 10 10 5 5 4 3 4 5 5 5 5 5 6 6 7 7 8 8 8 8 9 10 12 13 12 10 10 9 9 7 8 10 9 9 9 7 7 6 6 6 6 6
5 10 9 7 7 5 2 8 7 3 3 2 1 3 5 6 6 7 8 8 8 8 8 8 9 10 10 10 10 11 12 11 11 10 10 9 8 8 9 9 8 8 8 7 6 6 5 5 5
6 8 8 8 10 13 12 9 3 3 3 3 4 5 7 8 8 9 9 10 10 10 9 9 10 10 11 10 10 9 9 8 7 8 8 9 7 7 8 8 8 8 8 7 6 6 5 4 4
6 7 8 11 15 14 8 6 5 5 6 7 7 8 9 9 10 11 11 11 11 11 11 10 10 11 11 11 10 9 9 7 6 6 6 5 6 6 7 7 7 6 6 6 6 4 4 3 2
5 7 6 6 8 11 11 11 7 5 6 6 7 9 9 10 11 11 11 11 11 11 11 10 9 10 10 10 9 7 7 5 4 4 4 4 5 5 6 6 6 5 5 5 5 4 2 2 1
6 6 6 8 9 11 14 10 3 4 8 9 10 11 11 11 11 10 10 10 10 10 9 7 7 7 7 8 7 4 3 3 4 3 3 3 3 4 5 5 5 5 5 4 4 3 3 2 3
8 10 9 10 12 14 16 15 7 6 9 10 14 14 12 11 10 10 9 9 8 8 6 5 4 4 4 5 4 2 2 4 4 3 2 1 3 3 4 5 5 5 5 4 4 5 5 5 6
Wind_Direction
198 213 224 227 245 227 63 59 50 78 110 118 157 185 275 280 314 43 124 154 151 151 152 159 163 162 158 151 145 142 142 145 147 150 152 154 156 157 156 155 153 148 139 130 125 122 120 121 124
240 215 224 243 280 85 79 49 52 47 73 120 154 210 269 15 46 101 143 153 153 152 155 162 162 164 161 156 152 150 149 150 151 153 156 160 162 163 161 159 156 153 148 141 136 134 133 136 142
231 231 262 270 346 43 73 66 73 93 91 99 169 273 323 23 113 145 148 154 155 154 158 158 163 167 164 161 159 157 156 154 154 156 160 164 168 169 166 162 161 161 159 156 153 149 150 157 167
241 241 250 274 63 55 42 67 119 132 80 19 290 253 72 44 136 148 148 158 158 159 162 159 168 169 168 166 165 164 162 161 161 162 165 168 171 173 172 172 173 174 175 180 184 183 183 185 189
252 269 260 176 73 58 54 77 162 188 14 18 290 339 76 84 125 143 153 161 164 164 163 161 172 173 173 172 171 171 170 170 171 173 174 175 176 179 183 187 190 192 196 202 208 213 211 211 215
255 260 256 150 94 77 62 85 215 284 336 320 256 136 99 119 144 152 157 165 168 166 166 159 173 178 178 178 178 178 179 181 182 182 183 185 186 189 194 200 206 209 210 212 217 223 226 229 235
276 270 259 215 133 107 45 357 254 287 290 322 283 197 125 152 156 158 159 170 170 169 168 164 174 181 184 186 186 185 187 189 192 194 195 196 199 204 209 214 219 224 225 226 227 228 233 238 241
281 269 233 207 186 116 40 6 313 271 276 117 186 244 160 168 164 166 168 174 174 174 173 174 177 181 186 189 191 193 193 197 202 207 210 209 212 216 219 225 217 228 238 241 241 241 242 244 246
257 251 231 199 192 112 29 351 12 290 162 192 218 263 76 157 166 172 174 178 179 181 180 184 181 183 190 193 184 193 199 204 209 213 214 220 226 220 211 223 195 229 246 251 252 251 251 251 243
236 245 237 54 306 328 339 324 324 229 223 226 219 185 150 160 171 179 184 186 184 186 187 190 188 188 193 198 183 202 205 204 216 222 215 220 232 244 245 161 209 241 251 255 251 252 253 249 254
238 258 288 253 283 308 306 310 298 269 254 247 241 198 172 173 179 187 192 194 189 190 190 192 193 196 199 201 199 207 213 209 216 224 225 234 240 234 238 236 219 228 238 248 240 239 250 254 259
246 253 272 280 296 294 299 299 293 271 276 334 290 199 180 184 188 191 193 196 192 195 196 193 194 198 209 214 207 213 218 216 223 214 223 228 232 245 246 248 255 249 242 247 262 260 262 269 274
240 260 265 273 276 283 286 275 281 275 287 298 261 194 191 194 194 195 194 195 195 196 199 197 195 201 207 219 225 222 226 226 224 233 223 236 240 239 242 247 252 259 259 253 248 258 270 274 271
282 282 268 265 268 265 266 265 253 264 304 287 244 213 206 202 197 194 194 194 197 200 201 200 200 204 207 213 222 227 231 227 240 231 230 228 240 243 246 245 247 254 258 263 270 269 269 269 274
276 274 259 238 245 240 261 251 243 306 306 276 256 234 219 208 201 200 198 199 202 204 203 203 204 207 209 216 224 230 233 231 231 231 231 230 236 237 242 250 250 251 254 254 257 264 269 267 266
244 246 238 163 227 209 246 250 214 340 294 274 270 255 231 206 208 206 203 205 210 212 210 210 212 209 211 217 227 234 237 237 235 236 233 228 236 240 244 251 253 254 256 257 259 263 267 269 271
219 233 241 200 159 272 251 261 349 342 310 278 279 274 248 205 209 212 215 214 214 217 218 218 219 218 214 216 220 232 237 242 243 240 240 235 236 242 245 252 259 263 262 262 265 263 266 274 278
206 250 237 252 5 294 266 280 338 356 352 335 314 303 261 240 210 212 223 228 224 220 220 221 218 219 217 217 220 228 232 233 236 241 245 250 252 251 252 252 256 260 263 265 263 269 267 274 278
277 269 274 307 338 297 282 289 322 351 355 4 3 356 3 349 71 225 244 241 236 228 225 223 223 216 215 218 220 222 226 229 233 238 250 263 270 273 268 262 263 260 258 264 271 272 273 272 278
226 257 278 251 303 299 291 281 276 341 11 18 21 20 11 3 1 347 314 286 264 251 242 237 231 227 221 224 224 228 233 233 231 233 246 267 277 279 274 271 265 262 265 265 266 266 278 281 276
233 295 314 308 302 271 276 271 226 188 172 87 61 49 41 31 16 9 1 352 330 307 285 270 259 247 236 235 231 228 226 226 222 218 220 225 234 249 240 250 257 264 261 256 254 258 256 266 271
279 311 303 297 292 290 284 285 268 211 197 157 91 69 56 43 31 22 13 5 353 341 326 308 290 271 256 244 238 230 227 227 226 216 214 213 208 220 224 221 231 244 248 247 247 248 256 258 270
315 317 291 287 283 281 271 269 278 194 220 178 106 70 50 38 24 15 6 357 349 342 335 326 313 298 281 262 250 243 241 240 234 218 206 199 193 201 211 216 217 227 235 237 245 247 256 260 271
304 285 272 259 264 266 277 280 277 244 232 161 112 59 34 18 6 357 348 342 338 334 331 328 320 306 293 275 262 250 245 243 233 215 203 196 194 196 202 206 217 223 226 222 231 243 246 264 276
298 313 301 277 255 278 17 287 274 60 125 153 1 352 348 340 332 327 325 326 324 323 325 321 315 307 299 286 273 262 254 246 232 219 203 195 197 199 198 198 211 218 218 221 231 237 257 261 271
328 316 315 306 301 307 297 268 279 134 190 221 260 286 298 300 301 303 305 307 308 310 312 311 308 303 298 289 281 272 258 245 233 216 203 194 198 195 189 197 211 218 217 220 227 239 239 251 258
309 314 326 292 284 284 277 264 269 196 218 233 256 273 286 295 296 294 295 297 298 300 302 303 303 302 299 293 281 267 252 238 217 194 191 187 183 179 186 194 204 209 212 221 230 228 233 239 236
304 317 288 290 297 291 285 282 273 207 238 271 286 298 301 300 298 297 294 292 293 294 295 297 299 303 306 301 287 269 246 216 182 168 166 169 170 170 179 184 186 191 201 209 222 204 190 210 119
278 273 287 291 286 288 292 297 359 258 287 293 302 304 300 301 304 304 300 296 293 289 290 294 304 314 322 325 315 282 228 168 147 140 136 148 166 172 172 176 177 182 189 191 196 178 156 129 89
274 274 274 281 284 273 277 285 304 284 282 287 298 301 300 298 300 301 301 300 295 291 290 290 300 324 348 359 6 18 89 108 94 74 68 132 160 161 161 167 165 165 164 166 155 129 105 90 78
Height
1521 1520 1521 1523 1515 1500 1503 1503 1502 1504 1504 1508 1510 1511 1511 1512 1515 1521 1524 1524 1527 1530 1532 1535 1538 1541 1544 1547 1549 1551 1553 1554 1556 1557 1558 1559 1560 1561 1562 1563 1564 1564 1565 1566 1566 1567 1567 1567 1567
1522 1521 1523 1520 1505 1504 1509 1505 1504 1506 1508 1511 1512 1514 1513 1514 1520 1522 1523 1525 1528 1531 1533 1535 1538 1541 1544 1547 1550 1552 1553 1555 1556 1558 1559 1559 1560 1561 1561 1562 1563 1564 1565 1565 1566 1566 1567 1567 1567
1522 1521 1522 1509 1504 1506 1510 1506 1507 1510 1512 1512 1513 1515 1516 1517 1521 1522 1523 1526 1529 1532 1534 1536 1539 1542 1545 1548 1550 1552 1554 1556 1557 1558 1559 1560 1560 1561 1561 1562 1563 1564 1564 1565 1565 1566 1566 1567 1567
1524 1524 1518 1507 1506 1506 1507 1507 1508 1511 1513 1514 1514 1514 1518 1521 1521 1522 1523 1527 1531 1533 1536 1537 1540 1543 1546 1548 1551 1553 1555 1556 1558 1558 1559 1560 1560 1561 1562 1562 1563 1564 1564 1565 1565 1565 1566 1566 1566
1524 1520 1509 1505 1506 1506 1507 1509 1510 1510 1512 1514 1515 1514 1518 1521 1520 1522 1525 1529 1532 1536 1538 1538 1541 1544 1547 1549 1552 1554 1555 1557 1558 1559 1559 1560 1560 1561 1562 1562 1563 1563 1564 1564 1564 1565 1565 1565 1565
1524 1515 1508 1508 1509 1508 1508 1510 1510 1510 1512 1514 1515 1515 1519 1522 1522 1524 1527 1530 1534 1537 1539 1539 1541 1544 1547 1550 1552 1554 1556 1557 1558 1559 1559 1560 1561 1561 1562 1562 1562 1563 1563 1563 1564 1564 1564 1564 1564
1523 1512 1508 1508 1509 1509 1511 1511 1510 1510 1512 1513 1515 1515 1520 1523 1524 1526 1529 1531 1535 1538 1540 1540 1542 1544 1547 1549 1551 1553 1555 1557 1558 1559 1560 1560 1561 1561 1561 1562 1562 1562 1562 1562 1562 1562 1562 1562 1562
1523 1514 1508 1507 1509 1510 1512 1512 1512 1511 1512 1515 1516 1515 1518 1523 1525 1527 1530 1533 1536 1538 1540 1541 1543 1545 1547 1549 1551 1553 1555 1556 1558 1559 1559 1560 1560 1560 1560 1561 1561 1561 1561 1561 1560 1560 1560 1560 1559
1524 1517 1508 1506 1508 1509 1512 1511 1511 1512 1513 1515 1516 1517 1518 1521 1524 1527 1530 1532 1534 1536 1538 1541 1543 1545 1547 1550 1550 1552 1554 1555 1557 1558 1558 1558 1559 1561 1560 1560 1559 1559 1559 1558 1558 1558 1557 1557 1556
1521 1514 1507 1511 1511 1511 1512 1511 1511 1510 1511 1513 1515 1516 1517 1519 1522 1525 1527 1530 1532 1534 1536 1539 1542 1544 1547 1550 1550 1552 1553 1555 1555 1557 1557 1557 1558 1559 1560 1559 1558 1557 1557 1557 1556 1556 1555 1554 1555
1518 1514 1513 1514 1514 1515 1512 1511 1511 1508 1506 1508 1511 1514 1516 1518 1520 1523 1526 1529 1531 1533 1536 1537 1540 1542 1545 1548 1550 1552 1553 1554 1554 1555 1555 1556 1557 1557 1558 1558 1557 1556 1555 1555 1555 1554 1554 1554 1553
1519 1518 1519 1516 1515 1515 1514 1512 1510 1508 1507 1509 1510 1512 1514 1515 1517 1520 1523 1527 1530 1532 1535 1537 1538 1540 1542 1546 1548 1550 1551 1552 1553 1553 1553 1555 1555 1555 1556 1555 1556 1555 1554 1553 1552 1552 1552 1551 1550
1519 1517 1518 1517 1515 1514 1513 1511 1510 1508 1508 1509 1509 1510 1511 1513 1516 1519 1522 1525 1528 1530 1533 1536 1536 1538 1540 1543 1545 1547 1549 1551 1551 1551 1551 1551 1553 1553 1553 1552 1552 1552 1552 1551 1550 1549 1548 1547 1547
1519 1518 1516 1514 1513 1512 1512 1507 1508 1506 1508 1508 1509 1509 1510 1512 1515 1518 1521 1524 1526 1529 1532 1534 1534 1536 1538 1540 1541 1543 1546 1546 1548 1548 1549 1548 1549 1550 1550 1549 1549 1549 1549 1548 1547 1547 1545 1544 1544
1520 1517 1511 1509 1510 1510 1510 1506 1504 1506 1507 1507 1508 1509 1510 1513 1515 1518 1521 1523 1526 1528 1531 1531 1532 1534 1535 1537 1538 1541 1542 1544 1544 1544 1544 1544 1546 1546 1547 1547 1546 1546 1546 1545 1543 1543 1542 1540 1540
1516 1513 1509 1506 1508 1508 1511 1505 1500 1506 1505 1505 1506 1508 1510 1513 1515 1518 1520 1522 1525 1527 1528 1530 1531 1531 1532 1534 1535 1538 1539 1540 1540 1541 1541 1541 1542 1543 1543 1543 1543 1543 1542 1541 1540 1539 1538 1537 1536
1513 1512 1511 1508 1507 1507 1505 1502 1502 1506 1504 1504 1505 1507 1510 1512 1514 1517 1519 1521 1522 1524 1525 1526 1527 1529 1530 1530 1531 1533 1534 1535 1536 1537 1538 1539 1539 1539 1540 1540 1539 1539 1538 1537 1536 1535 1534 1533 1531
1515 1513 1514 1511 1507 1507 1505 1504 1505 1506 1505 1504 1505 1507 1509 1511 1513 1515 1517 1518 1520 1520 1521 1522 1523 1524 1526 1526 1527 1528 1529 1530 1531 1533 1534 1535 1536 1536 1536 1536 1535 1534 1533 1533 1532 1531 1529 1528 1527
1517 1516 1515 1512 1509 1508 1507 1507 1506 1507 1505 1505 1506 1507 1508 1511 1512 1513 1514 1515 1516 1517 1517 1517 1518 1519 1520 1521 1522 1522 1523 1524 1526 1528 1529 1530 1531 1532 1532 1531 1530 1529 1528 1528 1528 1527 1525 1524 1523
1517 1517 1515 1511 1509 1509 1507 1505 1505 1507 1508 1508 1508 1508 1509 1510 1511 1511 1512 1512 1513 1513 1514 1514 1513 1514 1514 1515 1516 1517 1518 1519 1520 1521 1522 1524 1525 1525 1526 1526 1525 1524 1523 1523 1523 1521 1520 1519 1518
1516 1516 1516 1515 1509 1504 1506 1503 1501 1504 1507 1508 1508 1509 1509 1509 1510 1510 1510 1509 1509 1510 1510 1509 1509 1509 1509 1509 1510 1510 1511 1511 1512 1513 1513 1516 1517 1518 1516 1517 1516 1517 1518 1519 1518 1516 1515 1514 1513
1516 1513 1515 1514 1513 1508 1505 1511 1495 1495 1500 1505 1507 1508 1509 1509 1509 1509 1508 1508 1507 1506 1506 1505 1504 1504 1504 1503 1504 1504 1504 1505 1505 1505 1506 1508 1508 1508 1507 1507 1509 1512 1514 1514 1513 1512 1510 1509 1508
1514 1515 1514 1512 1511 1509 1501 1505 1494 1491 1497 1500 1506 1508 1508 1509 1509 1508 1508 1506 1505 1504 1503 1502 1500 1499 1499 1498 1498 1498 1498 1498 1499 1499 1499 1499 1500 1500 1500 1500 1502 1506 1508 1508 1508 1507 1506 1505 1504
1515 1515 1510 1508 1506 1512 1502 1506 1499 1487 1492 1498 1504 1507 1507 1508 1508 1507 1507 1505 1504 1503 1501 1499 1497 1495 1494 1493 1493 1492 1492 1493 1493 1493 1493 1494 1495 1494 1495 1496 1498 1500 1502 1503 1503 1503 1502 1501 1499
1514 1517 1518 1515 1509 1506 1502 1508 1498 1494 1498 1501 1504 1505 1506 1507 1506 1506 1505 1504 1502 1500 1498 1496 1494 1492 1491 1489 1488 1487 1487 1487 1487 1487 1488 1488 1489 1489 1491 1492 1494 1496 1497 1499 1499 1499 1498 1497 1496
1515 1519 1527 1533 1522 1510 1502 1503 1493 1497 1500 1503 1504 1504 1505 1505 1504 1503 1502 1501 1499 1497 1495 1493 1491 1489 1487 1485 1484 1483 1482 1482 1482 1482 1483 1483 1484 1485 1487 1488 1491 1493 1494 1495 1495 1496 1495 1493 1492
1516 1515 1516 1523 1516 1516 1502 1494 1492 1496 1498 1500 1501 1501 1501 1501 1501 1500 1499 1497 1496 1494 1492 1490 1488 1485 1483 1482 1480 1478 1477 1477 1477 1477 1478 1479 1480 1482 1484 1485 1487 1489 1491 1492 1492 1492 1491 1491 1490
1515 1513 1517 1520 1526 1519 1503 1495 1493 1494 1495 1494 1496 1497 1498 1498 1497 1496 1495 1493 1492 1490 1488 1486 1484 1482 1480 1477 1475 1474 1473 1473 1473 1474 1475 1477 1478 1480 1482 1484 1485 1486 1488 1489 1489 1489 1488 1489 1488
1513 1514 1516 1514 1517 1521 1513 1499 1486 1490 1492 1493 1494 1494 1495 1494 1493 1492 1491 1489 1487 1486 1484 1482 1480 1478 1476 1473 1471 1469 1468 1469 1470 1472 1473 1475 1478 1479 1481 1483 1483 1485 1486 1487 1487 1488 1487 1487 1486
1512 1513 1514 1522 1519 1512 1511 1502 1483 1489 1491 1492 1492 1492 1492 1491 1490 1488 1487 1485 1483 1482 1480 1479 1477 1475 1472 1470 1467 1466 1465 1466 1468 1470 1472 1475 1477 1479 1480 1481 1483 1484 1485 1485 1486 1486 1486 1486 1485